Regional Weather Roundup
Issued by NWS San Angelo, TX

Home | Current Version | Previous Version | Text Only | Print | Product List | Glossary On
Versions: 1 2 3 4 5 6 7 8 9 10 11 12 13 14 15 16 17 18 19 20 21 22 23 24 25 26 27 28 29 30 31 32 33 34 35 36 37 38 39 40 41 42 43 44 45 46 47 48 49 50
000
ASUS44 KSJT 161710
RWRSJT
WEST CENTRAL TEXAS REGIONAL WEATHER ROUNDUP
NATIONAL WEATHER SERVICE SAN ANGELO TX
1100 AM CST SAT DEC 16 2017

NOTE: "FAIR" INDICATES FEW OR NO CLOUDS BELOW 12,000 FEET WITH NO
SIGNIFICANT WEATHER AND/OR OBSTRUCTIONS TO VISIBILITY.

TXZ049-054-064>066-071>073-076>078-098-099-113-114-127-128-139-140-
154-155-168>170-161800
...LOCATIONS ACROSS WEST CENTRAL TEXAS...

CITY           SKY/WX    TMP DP  RH WIND       PRES   REMARKS
SAN ANGELO     CLOUDY    48  30  49 S6        30.07R
ABILENE        MOSUNNY   52  28  39 S17G25    30.04F
DYESS AFB      CLOUDY    53  28  39 S17G24    30.03F
JUNCTION       CLOUDY    44  36  73 CALM      30.10R
SWEETWATER     SUNNY     53  21  28 S22G29    30.04S
BROWNWOOD      PTSUNNY   52  30  43 S9        30.10S
COLEMAN        PTSUNNY   50  30  46 SW8       30.10R
SONORA         CLOUDY    46  32  57 S7        30.12F
OZONA          PTSUNNY   45  28  53 S10G16    30.09F WCI  39
BRADY          NOT AVBL
$$

TEXAS PANHANDLE/OKLAHOMA PANHANDLE

CITY           SKY/WX    TMP DP  RH WIND       PRES   REMARKS
AMARILLO       SUNNY     49  22  34 S23G31    29.84F
BORGER         SUNNY     50  21  32 S17G30    29.83S
CANADIAN       SUNNY     52  26  35 S18       29.85F
DALHART        SUNNY     46  19  34 S18       29.78R WCI  39
DUMAS          SUNNY     44  19  36 S17       29.80S WCI  37
GUYMON         NOT AVBL
HEREFORD       SUNNY     47  24  40 MISG      29.86S
PAMPA          SUNNY     53  21  29 SW25      29.84F
PERRYTON       SUNNY     48  24  39 S18G28    29.80S
$$

SOUTHERN PANHANDLE/SOUTH PLAINS/ROLLING PLAINS

CITY           SKY/WX    TMP DP  RH WIND       PRES   REMARKS
LUBBOCK        SUNNY     47  26  44 S15       29.93S
SNYDER         SUNNY     49  25  38 S16       30.00F
CHILDRESS      SUNNY     52  27  38 SW15      29.95F
SEMINOLE       SUNNY     50  28  42 S17       29.96F
$$

PERMIAN BASIN

CITY           SKY/WX    TMP DP  RH WIND       PRES   REMARKS
MIDLAND        SUNNY     50  27  40 S17       29.98F
ODESSA         SUNNY     50  29  44 S14       29.97F
WINK           NOT AVBL
$$

FAR WEST/SOUTHWEST MOUNTAINS/TRANS PECOS

CITY           SKY/WX    TMP DP  RH WIND       PRES   REMARKS
ALPINE         CLOUDY    45  31  57 SW15G23   30.06R WCI  39
DRYDEN           N/A     43  37  79 W5        30.06R
EL PASO        SUNNY     41  26  55 S7        29.95F WCI  36
FORT STOCKTON  CLOUDY    49  34  56 S8        29.99R
GUADALUPE PASS SUNNY     41  24  51 SW28      29.94S WCI  30
MARFA          NOT AVBL
PECOS          MOSUNNY   43  32  64 CALM      29.96F
$$

DALLAS/FORT WORTH METROPLEX

CITY           SKY/WX    TMP DP  RH WIND       PRES   REMARKS
DFW AIRPORT    PTSUNNY   58  31  35 S7        30.10F
FTW MEACHAM    SUNNY     55  32  41 S9        30.11F
DAL-EXECUTIVE  SUNNY     57  34  41 S9        30.11F
GRAND PRAIRIE  SUNNY     55  30  38 S6        30.13F
ADDISON        SUNNY     55  30  38 S6        30.13S
MESQUITE       SUNNY     54  32  43 S6        30.15F
LANCASTER      SUNNY     55  32  42 S6        30.14F
$$

NORTH CENTRAL TEXAS

CITY           SKY/WX    TMP DP  RH WIND       PRES   REMARKS
SHRMAN/DENISON SUNNY     56  29  35 S14       30.12S
GAINESVILLE    SUNNY     53  29  38 S9        30.11S
BRIDGEPORT     MOSUNNY   58  30  34 SW7       30.10F
DENTON         SUNNY     53  32  44 S8        30.11S
WAXAHACHIE     SUNNY     58  34  41 S8        30.13F
GRANBURY       PTSUNNY   57  32  38 S12       30.12S
$$

WESTERN NORTH TEXAS

CITY           SKY/WX    TMP DP  RH WIND       PRES   REMARKS
WICHITA FALLS  SUNNY     53  28  38 S17       30.03F
VERNON         SUNNY     52  21  29 SW15G22   30.02S
BRECKENRIDGE   CLOUDY    52  27  37 S9        30.04F
COMANCHE       CLOUDY    58  33  38 S3        30.09F
$$

CENTRAL AND SOUTH CENTRAL TEXAS

CITY           SKY/WX    TMP DP  RH WIND       PRES   REMARKS
AUSTIN/BERGSTM CLOUDY    53  40  61 SE5       30.15F
WACO           CLOUDY    51  35  54 S8        30.14F
HILLSBORO      SUNNY     56  35  45 S7        30.13F
TEMPLE         CLOUDY    49  36  61 S6        30.16F
KILLEEN-GRAY   CLOUDY    47  36  66 SE7       30.12S
FORT HOOD      CLOUDY    47  36  67 SE6       30.10S
GEORGETOWN     CLOUDY    48  40  73 SE3       30.16F
LAGO VISTA     CLOUDY    50  39  65 CALM      30.14S
SAN MARCOS     CLOUDY    52  42  69 SE6       30.16F
NEW BRAUNFELS  CLOUDY    51  44  77 SE5       30.14F
RANDOLPH AFB   CLOUDY    50  44  81 CALM      30.14S
SAN ANTONIO    LGT RAIN  50  43  77 E6        30.15S
STINSON        CLOUDY    52  42  69 CALM      30.14R
PLEASANTON     NOT AVBL
LA GRANGE      CLOUDY    53  38  57 SE5       30.16F
GIDDINGS       CLOUDY    50  40  67 SE6       30.18S HAZE
$$

EAST TEXAS

CITY           SKY/WX    TMP DP  RH WIND       PRES   REMARKS
PARIS          SUNNY     55  32  41 S8        30.15F
CLARKSVILLE    NOT AVBL
TYLER          SUNNY     57  31  37 S10       30.18F
LONGVIEW       SUNNY     56  36  47 SW10      30.20S
PALESTINE      CLOUDY    52  36  55 SE3       30.21F
NACOGDOCHES    CLOUDY    45  38  76 CALM      30.23F
$$

TEXAS HILL COUNTRY AND EDWARDS PLATEAU

CITY           SKY/WX    TMP DP  RH WIND       PRES   REMARKS
LLANO          CLOUDY    46  36  66 CALM      30.17R
HORSESHOE BAY  CLOUDY    51  37  56 S5        30.13S
KERRVILLE      CLOUDY    48  38  69 S3        30.13R
FREDERICKSBRG  CLOUDY    48  35  62 S5        30.12S
ROCKSPRINGS    NOT AVBL
HONDO          CLOUDY    51  41  68 SW3       30.16R
UVALDE         CLOUDY    48  40  74 S10       30.17S
DEL RIO        CLOUDY    47  41  80 SE12      30.13R
$$

SOUTHEAST TEXAS

CITY           SKY/WX    TMP DP  RH WIND       PRES   REMARKS
COLLEGE STN    CLOUDY    50  38  63 SE7       30.19F
CALDWELL       CLOUDY    50  41  72 SE7       30.18F
CROCKETT         N/A     46  39  76 CALM      30.24F
BRENHAM        CLOUDY    52  39  60 SE6       30.20S
HUNTSVILLE     CLOUDY    50  36  58 SE3       30.20F
CONROE         CLOUDY    50  39  66 SE6       30.21S
HOUSTON BUSH   CLOUDY    54  38  54 E10       30.21F
HOUSTON HOBBY  CLOUDY    55  35  47 E13       30.20F
PERLAND        CLOUDY    56  40  55 E10       30.21F
WHARTON        CLOUDY    54  35  49 E10       30.18F
$$

THE UPPER TEXAS COAST

CITY           SKY/WX    TMP DP  RH WIND       PRES   REMARKS
ORANGE         CLOUDY    53  37  54 E12       30.25F
PORT ARTHUR    CLOUDY    55  35  47 E13       30.22F
GALVESTON      CLOUDY    59  43  55 E15       30.21F
ANGLETON       CLOUDY    58  42  55 E14       30.19F
BAY CITY       CLOUDY    58  44  59 E13G18    30.17F
$$

TEXAS COASTAL BEND, RIO GRANDE PLAINS DEEP SOUTH TEXAS

CITY           SKY/WX    TMP DP  RH WIND       PRES   REMARKS
VICTORIA       CLOUDY    54  38  54 E12       30.15F
BEEVILLE       CLOUDY    53  34  49 E10       30.14S
ROCKPORT       CLOUDY    56  46  69 NE13      30.13F
PORT ARANSAS   NOT AVBL
PORT LAVACA    CLOUDY    55  44  66 NE12      30.15F
CORPUS CHRISTI CLOUDY    53  43  68 NE15      30.12F
KINGSVILLE NAS CLOUDY    53  47  79 N9        30.12F
COTULLA        CLOUDY    49  45  86 W3        30.19R
LAREDO         RAIN      47  44  90 MISG      30.19S
BROWNSVILLE    LGT RAIN  53  51  93 NW9       30.09F FOG
PORT ISABEL    CLOUDY    53  52  96 NW9       30.08F FOG
HEBBRONVILLE   CLOUDY    49  40  70 CALM      30.17R
MCALLEN        CLOUDY    51  46  83 W10       30.15R
WESLACO        RAIN      48  46  91 NW8       30.13R
FALFURRIAS     CLOUDY    52  42  69 CALM      30.13S
EDINBURG       CLOUDY    53  45  74 W8        30.14R
$$



USA.gov is the U.S. government's official web portal to all federal, state and local government web resources and services.